This is the latest recevied weather packets stored in our database for station/object KY4OP-13. If no packets are shown the sender has not sent any weather packets the latest 1 day(s).
| Time | Temp. | Humidity | Pressure | Rain* | Wind** | Luminosity | Snow |
|---|---|---|---|---|---|---|---|
| 1778091849 | 18.89° C | 84% | 1011.2 hPa | 0 mm | - | - | - |
| 1778091546 | 19.44° C | 83% | 1011.4 hPa | 0 mm | - | - | - |
| 1778091244 | 19.44° C | 83% | 1011.2 hPa | 0 mm | - | - | - |
| 1778090334 | 19.44° C | 85% | 1011.1 hPa | 0 mm | - | - | - |
| 1778090030 | 19.44° C | 83% | 1011.5 hPa | 0 mm | - | - | - |
| 1778088517 | 18.33° C | 85% | 1011.1 hPa | 0 mm | - | - | - |
| 1778088213 | 18.33° C | 85% | 1011.4 hPa | 0 mm | - | - | - |
| 1778087305 | 18.33° C | 87% | 1011.5 hPa | 0 mm | - | - | - |
| 1778086397 | 18.33° C | 87% | 1011.3 hPa | 0 mm | - | - | - |
| 1778085790 | 17.78° C | 86% | 1011.5 hPa | 0 mm | - | - | - |
| 1778084576 | 17.78° C | 88% | 1011.8 hPa | 0 mm | - | - | - |
| 1778084273 | 17.22° C | 88% | 1011.8 hPa | 0 mm | - | - | - |
| 1778083970 | 17.22° C | 89% | 1011.8 hPa | 0 mm | - | - | - |
| 1778083057 | 17.22° C | 90% | 1012 hPa | 0 mm | - | - | - |
| 1778082754 | 17.22° C | 90% | 1011.8 hPa | 0 mm | - | - | - |
| 1778080719 | 16.11° C | 92% | 1012 hPa | 0 mm | - | - | - |
| 1778080415 | 16.11° C | 93% | 1011.7 hPa | 0 mm | - | - | - |
| 1778078900 | 15.56° C | 94% | 1012.2 hPa | 0 mm | - | - | - |
| 1778078295 | 15.56° C | 95% | 1012.3 hPa | 0 mm | - | - | - |
| 1778077086 | - | - | - | 0 mm | - | - | - |
| 1778076481 | 15° C | 96% | 1012.4 hPa | 1.27 mm | - | - | - |
| 1778075875 | 15° C | 96% | 1012.7 hPa | 0 mm | - | - | - |
| 1778075268 | 15° C | 95% | 1012.5 hPa | 1.78 mm | - | - | - |
| 1778074358 | 15.56° C | 94% | 1012.4 hPa | 1.78 mm | - | - | - |
| 1778074055 | 15.56° C | 94% | 1012.4 hPa | 1.78 mm | - | - | - |
* Rain latest hour (hover to see other rain measurements)
** Current wind speed in m/s (hover to see current wind gust speed)